Weather History for Manistique, MI

Change the Weather History Date:

Friday, October 14, 2011

  Actual Average Record
Temperature  
Mean Temperature 52 °F -  
Max Temperature 55 °F 54 °F 71 °F (2000)
Min Temperature 50 °F 37 °F 26 °F (1993)
Degree Days  
Heating Degree Days 12    
Growing Degree Days 2 (Base 50)    
Moisture  
Dew Point 48 °F    
Average Humidity 87    
Maximum Humidity 94    
Minimum Humidity 71    
Precipitation  
Precipitation 0.00 in - - ()
Sea Level Pressure  
Sea Level Pressure 29.29 in    
Wind  
Wind Speed 9 mph (NW)    
Max Wind Speed 22 mph    
Max Gust Speed 31 mph    
Visibility 8 miles    
Events Rain    
Averages and records for this station are not official NWS values.
T = Trace of Precipitation, MM = Missing Value Source: NWS Daily Summary

Daily Weather History Graph

Daily Weather History Graph

Search for Another Location

Airport:

Trip Planner

Search our weather history database for the weather conditions in past years. The results will help you decide how hot, cold, wet, or windy it might be!

Date:

Astronomy

Oct. 14, 2011 Rise Set
Actual Time 7:59 AM EDT 7:00 PM EDT
Civil Twilight 7:29 AM EDT 7:30 PM EDT
Nautical Twilight 6:55 AM EDT 8:05 PM EDT
Astronomical Twilight 6:20 AM EDT 8:40 PM EDT
Moon 8:02 PM EDT (10/14) 10:39 AM EDT (10/14)
Length of Visible Light 12h 01m
Length of Day
11h 01m
Waning Gibbous, 94% of the Moon is Illuminated
Oct 14
Waning Gibbous
Oct 19
Last Quarter
Oct 26
New
Nov 2
First Quarter
Nov 10
Full

Hourly Weather History & Observations

Time (EDT) Temp. Windchill Dew Point Humidity Pressure Visibility Wind Dir Wind Speed Gust Speed Precip Events Conditions
12:15 AM 55.4 °F - 53.6 °F 94% 29.37 in 7.0 mi NNW 4.6 mph - N/A Rain Light Rain
12:34 AM 55.4 °F - 53.6 °F 94% 29.37 in 7.0 mi NNW 4.6 mph - N/A Rain Rain
12:54 AM 55.4 °F - 53.6 °F 94% 29.36 in 7.0 mi North 4.6 mph - N/A Rain Rain
1:14 AM 55.4 °F - 53.6 °F 94% 29.35 in 7.0 mi North 8.1 mph - N/A Rain Rain
1:34 AM 55.4 °F - 51.8 °F 88% 29.34 in 7.0 mi North 8.1 mph - N/A Rain Heavy Rain
1:54 AM 53.6 °F - 51.8 °F 94% 29.34 in 4.0 mi NNW 4.6 mph - N/A Rain Heavy Rain
2:14 AM 53.6 °F - 51.8 °F 94% 29.34 in 2.0 mi Calm Calm - N/A Rain Heavy Rain
2:34 AM 53.6 °F - 51.8 °F 94% 29.33 in 4.0 mi NNW 5.8 mph - N/A Rain Heavy Rain
2:55 AM 53.6 °F - 51.8 °F 94% 29.33 in 4.0 mi NNW 4.6 mph - N/A Rain Heavy Rain
3:14 AM 53.6 °F - 51.8 °F 94% 29.33 in 5.0 mi Calm Calm - N/A Rain Heavy Rain
3:34 AM 53.6 °F - 51.8 °F 94% 29.31 in 5.0 mi NNW 8.1 mph - N/A Rain Heavy Rain
3:54 AM 53.6 °F - 50.0 °F 88% 29.31 in 7.0 mi NNW 9.2 mph - N/A Rain Heavy Rain
4:14 AM 53.6 °F - 51.8 °F 94% 29.31 in 7.0 mi WNW 6.9 mph - N/A Rain Heavy Rain
4:35 AM 53.6 °F - 50.0 °F 88% 29.30 in 5.0 mi NNW 12.7 mph 18.4 mph N/A Rain Heavy Rain
4:54 AM 53.6 °F - 50.0 °F 88% 29.30 in 7.0 mi NNW 10.4 mph 17.3 mph N/A Rain Heavy Rain
5:14 AM 51.8 °F - 50.0 °F 94% 29.29 in 10.0 mi NW 10.4 mph 17.3 mph N/A Rain Rain
5:35 AM 51.8 °F - 48.2 °F 88% 29.29 in 10.0 mi NW 12.7 mph 17.3 mph N/A Rain Light Rain
5:54 AM 51.8 °F - 48.2 °F 88% 29.29 in 7.0 mi NW 8.1 mph 17.3 mph N/A Rain Rain
6:14 AM 51.8 °F - 48.2 °F 88% 29.28 in 7.0 mi NW 10.4 mph 16.1 mph N/A Rain Rain
6:34 AM 51.8 °F - 48.2 °F 88% 29.27 in 10.0 mi NW 11.5 mph - N/A Rain Light Rain
6:54 AM 51.8 °F - 48.2 °F 88% 29.28 in 10.0 mi NW 8.1 mph - N/A Rain Rain
7:14 AM 51.8 °F - 48.2 °F 88% 29.27 in 10.0 mi WNW 9.2 mph - N/A Rain Rain
7:34 AM 51.8 °F - 48.2 °F 88% 29.27 in 10.0 mi WNW 9.2 mph - N/A Rain Light Rain
7:54 AM 51.8 °F - 48.2 °F 88% 29.27 in 10.0 mi WNW 10.4 mph - N/A Rain Light Rain
8:15 AM 50.0 °F - 48.2 °F 94% 29.27 in 10.0 mi WNW 13.8 mph 17.3 mph N/A Rain Light Rain
8:34 AM 50.0 °F - 46.4 °F 87% 29.27 in 7.0 mi WNW 11.5 mph 16.1 mph N/A Rain Light Rain
9:15 AM 50.0 °F - 46.4 °F 87% 29.26 in 10.0 mi WNW 11.5 mph - N/A Rain Rain
9:34 AM 50.0 °F - 46.4 °F 87% 29.26 in 10.0 mi WNW 12.7 mph 16.1 mph N/A Rain Rain
9:54 AM 50.0 °F - 46.4 °F 87% 29.26 in 10.0 mi WNW 13.8 mph 18.4 mph N/A Rain Light Rain
10:15 AM 50.0 °F - 46.4 °F 87% 29.26 in 10.0 mi WNW 12.7 mph 19.6 mph N/A Rain Light Rain
10:34 AM 50.0 °F - 46.4 °F 87% 29.26 in 10.0 mi WNW 10.4 mph - N/A Rain Light Rain
10:54 AM 50.0 °F - 46.4 °F 87% 29.27 in 10.0 mi WNW 11.5 mph 18.4 mph N/A Rain Rain
11:14 AM 51.8 °F - 48.2 °F 88% 29.27 in 10.0 mi West 9.2 mph - N/A Rain Rain
11:34 AM 51.8 °F - 48.2 °F 88% 29.27 in 10.0 mi WNW 11.5 mph 17.3 mph N/A Rain Light Rain
11:54 AM 51.8 °F - 48.2 °F 88% 29.27 in 10.0 mi West 9.2 mph - N/A   Drizzle
12:15 PM 51.8 °F - 48.2 °F 88% 29.27 in 4.0 mi WNW 10.4 mph 16.1 mph N/A Rain Rain
12:34 PM 51.8 °F - 48.2 °F 88% 29.27 in 7.0 mi WNW 13.8 mph 23.0 mph N/A   Drizzle
12:54 PM 51.8 °F - 48.2 °F 88% 29.27 in 10.0 mi WNW 15.0 mph 21.9 mph N/A   Drizzle
1:14 PM 51.8 °F - 48.2 °F 88% 29.28 in 10.0 mi West 12.7 mph 18.4 mph N/A   Drizzle
1:35 PM 50.0 °F - 46.4 °F 87% 29.28 in 5.0 mi WNW 13.8 mph 27.6 mph N/A   Light Drizzle
1:54 PM 51.8 °F - 46.4 °F 82% 29.28 in 5.0 mi WNW 16.1 mph 25.3 mph N/A   Overcast
2:14 PM 51.8 °F - 46.4 °F 82% 29.28 in 10.0 mi WNW 16.1 mph 23.0 mph N/A   Overcast
2:35 PM 51.8 °F - 46.4 °F 82% 29.28 in 10.0 mi WNW 19.6 mph 25.3 mph N/A   Overcast
2:54 PM 51.8 °F - 46.4 °F 82% 29.28 in 10.0 mi West 16.1 mph 26.5 mph N/A   Overcast
3:14 PM 51.8 °F - 44.6 °F 76% 29.29 in 10.0 mi WNW 15.0 mph 24.2 mph N/A   Overcast
3:35 PM 51.8 °F - 44.6 °F 76% 29.29 in 10.0 mi West 12.7 mph 19.6 mph N/A   Overcast
3:54 PM 51.8 °F - 44.6 °F 76% 29.29 in 10.0 mi WNW 16.1 mph 24.2 mph N/A Rain Light Rain
4:35 PM 51.8 °F - 44.6 °F 76% 29.30 in 10.0 mi WNW 17.3 mph 21.9 mph N/A   Overcast
4:54 PM 51.8 °F - 42.8 °F 71% 29.31 in 10.0 mi West 11.5 mph 20.7 mph N/A   Overcast
5:14 PM 51.8 °F - 42.8 °F 71% 29.31 in 10.0 mi West 21.9 mph 31.1 mph N/A   Overcast
5:34 PM 51.8 °F - 42.8 °F 71% 29.31 in 10.0 mi West 16.1 mph 21.9 mph N/A   Overcast
5:54 PM 51.8 °F - 42.8 °F 71% 29.32 in 10.0 mi West 17.3 mph 24.2 mph N/A Rain Light Rain
6:14 PM 48.2 °F - 44.6 °F 87% 29.33 in 10.0 mi West 11.5 mph 17.3 mph N/A Rain Rain
6:34 PM 48.2 °F - 42.8 °F 82% 29.33 in 10.0 mi West 16.1 mph 20.7 mph N/A Rain Light Rain
6:54 PM 48.2 °F - 42.8 °F 82% 29.33 in 10.0 mi West 13.8 mph 19.6 mph N/A Rain Light Rain
7:14 PM 48.2 °F - 42.8 °F 82% 29.34 in 10.0 mi West 8.1 mph 17.3 mph N/A   Drizzle
7:34 PM 48.2 °F - 42.8 °F 82% 29.34 in 10.0 mi West 13.8 mph 20.7 mph N/A Rain Rain
7:54 PM 46.4 °F 41.5 °F 42.8 °F 87% 29.34 in 10.0 mi West 10.4 mph 17.3 mph N/A Rain Rain
8:14 PM 46.4 °F 40.1 °F 42.8 °F 87% 29.34 in 10.0 mi West 15.0 mph 20.7 mph N/A   Drizzle
8:34 PM 46.4 °F 40.7 °F 42.8 °F 87% 29.34 in 10.0 mi West 12.7 mph 20.7 mph N/A Rain Rain
8:54 PM 46.4 °F 40.7 °F 41.0 °F 81% 29.34 in 10.0 mi West 12.7 mph 20.7 mph N/A Rain Light Rain
9:15 PM 44.6 °F 38.8 °F 41.0 °F 87% 29.33 in 10.0 mi West 11.5 mph 17.3 mph N/A   Overcast
9:34 PM 44.6 °F 38.8 °F 41.0 °F 87% 29.33 in 10.0 mi West 11.5 mph 17.3 mph N/A   Overcast
9:54 PM 44.6 °F 38.1 °F 41.0 °F 87% 29.33 in 10.0 mi West 13.8 mph 19.6 mph N/A   Overcast
10:15 PM 44.6 °F 38.8 °F 41.0 °F 87% 29.32 in 10.0 mi West 11.5 mph 18.4 mph N/A   Overcast
10:34 PM 44.6 °F 39.2 °F 39.2 °F 81% 29.31 in 10.0 mi West 10.4 mph 18.4 mph N/A   Overcast
10:54 PM 44.6 °F 38.1 °F 39.2 °F 81% 29.31 in 10.0 mi West 13.8 mph 18.4 mph N/A   Light Drizzle
11:14 PM 44.6 °F 38.4 °F 39.2 °F 81% 29.31 in 10.0 mi West 12.7 mph 19.6 mph N/A   Light Drizzle
11:34 PM 44.6 °F 38.1 °F 39.2 °F 81% 29.31 in 10.0 mi West 13.8 mph 21.9 mph N/A Rain Rain
11:54 PM 44.6 °F 39.2 °F 39.2 °F 81% 29.30 in 10.0 mi West 10.4 mph 18.4 mph N/A   Light Drizzle